Weather History for Fergus Falls, MN

Change the Weather History Date:

Wednesday, September 4, 2013

  Actual Average Record
Temperature  
Mean Temperature 70 °F -  
Max Temperature 80 °F 75 °F 93 °F (1970)
Min Temperature 60 °F 52 °F 37 °F (1956)
Cooling Degree Days 5    
Growing Degree Days 20 (Base 50)    
Moisture  
Dew Point 55 °F    
Average Humidity 62    
Maximum Humidity 94    
Minimum Humidity 30    
Precipitation  
Precipitation 0.00 in - - ()
Sea Level Pressure  
Sea Level Pressure 30.10 in    
Wind  
Wind Speed 3 mph (ENE)    
Max Wind Speed 9 mph    
Max Gust Speed -    
Visibility 10 miles    
Events      
Averages and records for this station are not official NWS values.
T = Trace of Precipitation, MM = Missing Value Source: NWS Daily Summary

Daily Weather History Graph

Daily Weather History Graph

Search for Another Location

Airport:

Trip Planner

Search our weather history database for the weather conditions in past years. The results will help you decide how hot, cold, wet, or windy it might be!

Date:

Astronomy

Sep. 04, 2013 Rise Set
Actual Time 6:49 AM CDT 7:57 PM CDT
Civil Twilight 6:18 AM CDT 8:27 PM CDT
Nautical Twilight 5:41 AM CDT 9:04 PM CDT
Astronomical Twilight 5:01 AM CDT 9:43 PM CDT
Moon 6:02 AM CDT (9/4) 7:15 PM CDT (9/4)
Length of Visible Light 14h 09m
Length of Day
13h 07m
Waning Crescent, 1% of the Moon is Illuminated
Sep 4
Waning Crescent
Sep 5
New
Sep 12
First Quarter
Sep 19
Full
Sep 26
Last Quarter

Hourly Weather History & Observations

Time (CDT) Temp. Heat Index Dew Point Humidity Pressure Visibility Wind Dir Wind Speed Gust Speed Precip Events Conditions
12:13 AM 66.2 °F - 59.0 °F 78% 30.01 in 10.0 mi Calm Calm - N/A   Clear
12:33 AM 66.2 °F - 60.8 °F 83% 30.01 in 10.0 mi Calm Calm - N/A   Clear
12:53 AM 66.2 °F - 60.8 °F 83% 30.01 in 10.0 mi SSE 3.5 mph - N/A   Clear
1:13 AM 64.4 °F - 60.8 °F 88% 30.01 in 10.0 mi Calm Calm - N/A   Clear
1:33 AM 62.6 °F - 57.2 °F 82% 30.02 in 10.0 mi Calm Calm - N/A   Clear
1:53 AM 66.2 °F - 60.8 °F 83% 30.02 in 10.0 mi Calm Calm - N/A   Clear
2:13 AM 62.6 °F - 59.0 °F 88% 30.03 in 10.0 mi Calm Calm - N/A   Clear
2:33 AM 60.8 °F - 59.0 °F 94% 30.04 in 10.0 mi North 4.6 mph - N/A   Clear
2:53 AM 62.6 °F - 60.8 °F 94% 30.04 in 10.0 mi North 3.5 mph - N/A   Clear
3:13 AM 62.6 °F - 60.8 °F 94% 30.04 in 10.0 mi NE 3.5 mph - N/A   Clear
3:33 AM 62.6 °F - 59.0 °F 88% 30.04 in 10.0 mi East 4.6 mph - N/A   Clear
3:53 AM 62.6 °F - 59.0 °F 88% 30.04 in 10.0 mi East 3.5 mph - N/A   Clear
4:13 AM 62.6 °F - 60.8 °F 94% 30.04 in 10.0 mi ENE 3.5 mph - N/A   Clear
4:33 AM 60.8 °F - 59.0 °F 94% 30.04 in 10.0 mi East 4.6 mph - N/A   Clear
4:53 AM 60.8 °F - 59.0 °F 94% 30.05 in 10.0 mi NE 3.5 mph - N/A   Clear
5:12 AM 60.8 °F - 59.0 °F 94% 30.06 in 10.0 mi ENE 3.5 mph - N/A   Clear
5:33 AM 60.8 °F - 59.0 °F 94% 30.06 in 10.0 mi ENE 3.5 mph - N/A   Clear
5:53 AM 62.6 °F - 60.8 °F 94% 30.06 in 10.0 mi Calm Calm - N/A   Clear
6:12 AM 62.6 °F - 60.8 °F 94% 30.07 in 10.0 mi ENE 3.5 mph - N/A   Clear
6:33 AM 62.6 °F - 60.8 °F 94% 30.08 in 10.0 mi ENE 3.5 mph - N/A   Clear
6:53 AM 62.6 °F - 60.8 °F 94% 30.09 in 10.0 mi Calm Calm - N/A   Clear
7:13 AM 62.6 °F - 60.8 °F 94% 30.09 in 10.0 mi ENE 3.5 mph - N/A   Clear
7:33 AM 62.6 °F - 60.8 °F 94% 30.09 in 10.0 mi ENE 5.8 mph - N/A   Clear
7:53 AM 62.6 °F - 59.0 °F 88% 30.10 in 10.0 mi ENE 5.8 mph - N/A   Clear
8:13 AM 64.4 °F - 59.0 °F 83% 30.10 in 10.0 mi ENE 5.8 mph - N/A   Clear
8:33 AM 64.4 °F - 57.2 °F 77% 30.11 in 10.0 mi ENE 9.2 mph - N/A   Clear
8:53 AM 66.2 °F - 59.0 °F 78% 30.11 in 10.0 mi East 5.8 mph - N/A   Clear
9:13 AM 66.2 °F - 57.2 °F 73% 30.12 in 10.0 mi ENE 6.9 mph - N/A   Clear
9:33 AM 68.0 °F - 57.2 °F 68% 30.12 in 10.0 mi ENE 5.8 mph - N/A   Clear
9:53 AM 69.8 °F - 57.2 °F 64% 30.12 in 10.0 mi ESE 4.6 mph - N/A   Clear
10:13 AM 69.8 °F - 57.2 °F 64% 30.13 in 10.0 mi East 5.8 mph - N/A   Clear
10:33 AM 71.6 °F - 57.2 °F 60% 30.13 in 10.0 mi Calm Calm - N/A   Clear
10:53 AM 71.6 °F - 57.2 °F 60% 30.13 in 10.0 mi NE 3.5 mph - N/A   Clear
11:13 AM 73.4 °F - 57.2 °F 57% 30.13 in 10.0 mi Calm Calm - N/A   Clear
11:33 AM 73.4 °F - 55.4 °F 53% 30.13 in 10.0 mi ENE 3.5 mph - N/A   Clear
11:53 AM 73.4 °F - 55.4 °F 53% 30.13 in 10.0 mi East 6.9 mph - N/A   Clear
12:13 PM 75.2 °F - 55.4 °F 50% 30.14 in 10.0 mi ENE 6.9 mph - N/A   Clear
12:33 PM 75.2 °F - 55.4 °F 50% 30.13 in 10.0 mi NNE 4.6 mph - N/A   Clear
12:53 PM 78.8 °F - 53.6 °F 42% 30.13 in 10.0 mi ENE 6.9 mph - N/A   Clear
1:13 PM 78.8 °F - 53.6 °F 42% 30.13 in 10.0 mi East 6.9 mph - N/A   Clear
1:33 PM 78.8 °F - 50.0 °F 36% 30.13 in 10.0 mi East 8.1 mph - N/A   Clear
1:53 PM 78.8 °F - 50.0 °F 36% 30.13 in 10.0 mi ESE 5.8 mph - N/A   Clear
2:13 PM 78.8 °F - 50.0 °F 36% 30.12 in 10.0 mi ESE 4.6 mph - N/A   Clear
2:33 PM 80.6 °F - 50.0 °F 34% 30.12 in 10.0 mi East 3.5 mph - N/A   Clear
2:53 PM 80.6 °F - 46.4 °F 30% 30.11 in 10.0 mi ENE 5.8 mph - N/A   Clear
3:13 PM 78.8 °F - 48.2 °F 34% 30.11 in 10.0 mi Calm Calm - N/A   Clear
3:33 PM 80.6 °F - 50.0 °F 34% 30.11 in 10.0 mi Calm Calm - N/A   Clear
3:52 PM 80.6 °F - 51.8 °F 37% 30.11 in 10.0 mi Calm Calm - N/A   Clear
4:13 PM 80.6 °F - 51.8 °F 37% 30.10 in 10.0 mi Calm Calm - N/A   Clear
4:33 PM 80.6 °F 80.3 °F 53.6 °F 39% 30.10 in 10.0 mi NNW 3.5 mph - N/A   Clear
4:53 PM 80.6 °F - 51.8 °F 37% 30.10 in 10.0 mi Calm Calm - N/A   Clear
5:13 PM 80.6 °F - 50.0 °F 34% 30.10 in 10.0 mi NNE 3.5 mph - N/A   Clear
5:33 PM 80.6 °F - 51.8 °F 37% 30.10 in 10.0 mi Calm Calm - N/A   Clear
5:52 PM 78.8 °F - 53.6 °F 42% 30.09 in 10.0 mi Calm Calm - N/A   Clear
6:13 PM 80.6 °F 80.3 °F 53.6 °F 39% 30.10 in 10.0 mi Calm Calm - N/A   Clear
6:33 PM 78.8 °F - 51.8 °F 39% 30.10 in 10.0 mi Calm Calm - N/A   Clear
6:53 PM 78.8 °F - 51.8 °F 39% 30.10 in 10.0 mi Calm Calm - N/A   Clear
7:13 PM 75.2 °F - 53.6 °F 47% 30.10 in 10.0 mi Calm Calm - N/A   Clear
7:33 PM 73.4 °F - 55.4 °F 53% 30.11 in 10.0 mi NE 4.6 mph - N/A   Clear
7:53 PM 73.4 °F - 53.6 °F 50% 30.11 in 10.0 mi NE 4.6 mph - N/A   Clear
8:13 PM 71.6 °F - 53.6 °F 53% 30.11 in 10.0 mi ENE 3.5 mph - N/A   Clear
8:33 PM 71.6 °F - 51.8 °F 50% 30.11 in 10.0 mi NE 4.6 mph - N/A   Clear
8:53 PM 71.6 °F - 51.8 °F 50% 30.12 in 10.0 mi NE 5.8 mph - N/A   Clear
9:13 PM 69.8 °F - 50.0 °F 49% 30.12 in 10.0 mi ENE 4.6 mph - N/A   Clear
9:33 PM 69.8 °F - 51.8 °F 53% 30.13 in 10.0 mi East 5.8 mph - N/A   Clear
9:53 PM 69.8 °F - 48.2 °F 46% 30.13 in 10.0 mi East 5.8 mph - N/A   Clear
10:13 PM 69.8 °F - 46.4 °F 43% 30.14 in 10.0 mi East 6.9 mph - N/A   Clear
10:33 PM 68.0 °F - 46.4 °F 46% 30.14 in 10.0 mi East 8.1 mph - N/A   Clear
10:53 PM 66.2 °F - 46.4 °F 49% 30.15 in 10.0 mi East 6.9 mph - N/A   Clear
11:13 PM 66.2 °F - 46.4 °F 49% 30.15 in 10.0 mi East 5.8 mph - N/A   Clear
11:33 PM 66.2 °F - 44.6 °F 46% 30.15 in 10.0 mi East 5.8 mph - N/A   Clear
11:53 PM 66.2 °F - 42.8 °F 43% 30.16 in 10.0 mi East 5.8 mph - N/A   Clear